CW2014 Weather Reports


Display with metric or nautical units.
time (UTC)temp
F
wind
direction
speed
MPH
gust
MPH
rain 1hr
in
rain 24hr
in
rain mn
in
humidity
%
barometer
mb
20260903231024 100 183 0.0 10.0 0.00 0.00 0.00 31 1007.0
20260903230524 100 280 2.0 10.0 0.00 0.00 0.00 31 1007.1
20260903230046 100 0 3.0 8.0 0.00 0.00 0.00 31 1007.3
20260903225524 101 71 1.0 5.0 0.00 0.00 0.00 30 1007.4
20260903225023 101 10 1.0 5.0 0.00 0.00 0.00 31 1007.4
20260903224549 101 241 1.0 6.0 0.00 0.00 0.00 31 1007.4
20260903224023 101 231 1.0 6.0 0.00 0.00 0.00 30 1007.6
20260903223524 101 113 1.0 6.0 0.00 0.00 0.00 30 1007.6
20260903223044 101 180 1.0 5.0 0.00 0.00 0.00 31 1007.5
20260903222528 101 132 0.0 4.0 0.00 0.00 0.00 30 1007.6
20260903222025 101 0 0.0 4.0 0.00 0.00 0.00 30 1007.7
20260903221547 101 0 1.0 6.0 0.00 0.00 0.00 30 1007.7
20260903221023 101 134 1.0 10.0 0.00 0.00 0.00 30 1007.7
20260903220523 101 192 4.0 10.0 0.00 0.00 0.00 30 1007.8
20260903220053 102 220 2.0 9.0 0.00 0.00 0.00 30 1007.9
20260903215525 102 304 2.0 9.0 0.00 0.00 0.00 30 1007.9
20260903215022 101 184 3.0 9.0 0.00 0.00 0.00 29 1008.0
20260903214545 102 265 2.0 7.0 0.00 0.00 0.00 30 1008.1
20260903214025 102 0 1.0 5.0 0.00 0.00 0.00 30 1008.2
20260903213526 101 13 0.0 9.0 0.00 0.00 0.00 30 1008.3
20260903213045 101 215 3.0 9.0 0.00 0.00 0.00 31 1008.4
20260903212524 101 145 3.0 9.0 0.00 0.00 0.00 31 1008.5
20260903212025 100 227 0.0 7.0 0.00 0.00 0.00 30 1008.7
20260903211545 101 237 2.0 7.0 0.00 0.00 0.00 29 1008.9
20260903211023 100 180 1.0 9.0 0.00 0.00 0.00 30 1008.8
20260903210523 100 76 2.0 9.0 0.00 0.00 0.00 32 1008.9
20260903210105 100 175 4.0 9.0 0.00 0.00 0.00 32 1009.0
20260903205525 100 0 3.0 11.0 0.00 0.00 0.00 31 1009.1
20260903205025 101 169 3.0 11.0 0.00 0.00 0.00 31 1009.2
20260903204604 101 202 2.0 9.0 0.00 0.00 0.00 30 1009.2
20260903204024 101 221 3.0 8.0 0.00 0.00 0.00 30 1009.3
20260903203524 101 218 1.0 9.0 0.00 0.00 0.00 30 1009.4
20260903203048 101 185 2.0 9.0 0.00 0.00 0.00 31 1009.5
20260903202523 100 155 2.0 8.0 0.00 0.00 0.00 32 1009.6
20260903202030 100 154 2.0 10.0 0.00 0.00 0.00 32 1009.6
20260903201546 99 265 1.0 12.0 0.00 0.00 0.00 33 1009.7
20260903201023 99 177 5.0 12.0 0.00 0.00 0.00 33 1009.9
20260903200524 99 246 2.0 8.0 0.00 0.00 0.00 33 1009.8
20260903200058 99 239 2.0 9.0 0.00 0.00 0.00 34 1010.0
20260903195523 98 205 3.0 9.0 0.00 0.00 0.00 34 1010.1
20260903195023 98 0 2.0 12.0 0.00 0.00 0.00 34 1010.0
20260903194552 98 64 3.0 12.0 0.00 0.00 0.00 33 1010.1
20260903194024 98 0 2.0 9.0 0.00 0.00 0.00 34 1010.0
20260903193526 98 219 3.0 9.0 0.00 0.00 0.00 35 1010.0
20260903193048 98 156 2.0 8.0 0.00 0.00 0.00 35 1010.2
20260903192525 97 247 1.0 8.0 0.00 0.00 0.00 35 1010.3
20260903192024 97 14 1.0 10.0 0.00 0.00 0.00 35 1010.4
20260903191545 97 0 3.0 10.0 0.00 0.00 0.00 33 1010.5
20260903191023 98 194 2.0 9.0 0.00 0.00 0.00 36 1010.6
20260903190524 96 211 2.0 8.0 0.00 0.00 0.00 36 1010.6
20260903190049 96 123 1.0 9.0 0.00 0.00 0.00 37 1010.8
20260903185524 96 166 2.0 10.0 0.00 0.00 0.00 35 1010.9
20260903185025 97 134 4.0 10.0 0.00 0.00 0.00 35 1011.0
20260903184547 97 170 2.0 10.0 0.00 0.00 0.00 36 1011.1
20260903184028 97 126 4.0 10.0 0.00 0.00 0.00 36 1011.2
20260903183524 97 172 2.0 7.0 0.00 0.00 0.00 38 1011.2
20260903183053 96 104 1.0 9.0 0.00 0.00 0.00 37 1011.4
20260903182523 96 193 2.0 9.0 0.00 0.00 0.00 38 1011.4
20260903182024 96 179 2.0 9.0 0.00 0.00 0.00 39 1011.6
20260903181548 95 0 2.0 9.0 0.00 0.00 0.00 40 1011.6
20260903181025 95 201 3.0 7.0 0.00 0.00 0.00 40 1011.7
20260903180524 95 0 2.0 7.0 0.00 0.00 0.00 40 1011.7
20260903180049 95 130 2.0 7.0 0.00 0.00 0.00 41 1011.8
20260903175524 95 0 1.0 8.0 0.00 0.00 0.00 41 1011.9
20260903175024 95 140 2.0 8.0 0.00 0.00 0.00 41 1011.8
20260903174546 95 188 1.0 9.0 0.00 0.00 0.00 42 1011.8
20260903174029 95 250 2.0 10.0 0.00 0.00 0.00 41 1011.8
20260903173527 95 166 2.0 10.0 0.00 0.00 0.00 42 1011.9
20260903173055 94 158 2.0 10.0 0.00 0.00 0.00 43 1012.0
20260903172523 94 88 1.0 7.0 0.00 0.00 0.00 43 1012.0
20260903172027 94 209 2.0 7.0 0.00 0.00 0.00 43 1011.9
20260903171555 94 167 2.0 8.0 0.00 0.00 0.00 43 1012.0
20260903171024 93 90 2.0 8.0 0.00 0.00 0.00 43 1012.0
20260903170526 93 157 3.0 8.0 0.00 0.00 0.00 44 1011.9
20260903170047 93 284 2.0 9.0 0.00 0.00 0.00 43 1012.0
20260903165524 93 194 3.0 9.0 0.00 0.00 0.00 44 1011.9
20260903165024 92 139 1.0 6.0 0.00 0.00 0.00 45 1011.9
20260903164552 92 76 1.0 7.0 0.00 0.00 0.00 44 1011.9
20260903164026 93 211 2.0 7.0 0.00 0.00 0.00 44 1011.9
20260903163529 92 187 1.0 6.0 0.00 0.00 0.00 44 1012.0
20260903163048 92 20 1.0 5.0 0.00 0.00 0.00 44 1011.9
20260903162526 92 215 1.0 8.0 0.00 0.00 0.00 44 1012.0
20260903162026 92 97 2.0 8.0 0.00 0.00 0.00 45 1011.9
20260903161546 92 167 3.0 7.0 0.00 0.00 0.00 45 1011.9
20260903161027 92 134 2.0 7.0 0.00 0.00 0.00 46 1011.9
20260903160526 91 180 3.0 9.0 0.00 0.00 0.00 46 1012.0
20260903160100 91 123 2.0 10.0 0.00 0.00 0.00 47 1012.0
20260903155525 91 141 3.0 10.0 0.00 0.00 0.00 47 1012.0
20260903155029 90 215 2.0 8.0 0.00 0.00 0.00 48 1011.9
20260903154546 90 192 2.0 8.0 0.00 0.00 0.00 49 1012.0
20260903154026 90 221 2.0 8.0 0.00 0.00 0.00 49 1012.0
20260903153525 89 0 3.0 8.0 0.00 0.00 0.00 49 1011.9
20260903153054 89 238 2.0 7.0 0.00 0.00 0.00 49 1012.0
20260903152528 89 219 2.0 7.0 0.00 0.00 0.00 49 1012.1
20260903152027 89 207 2.0 7.0 0.00 0.00 0.00 50 1012.0
20260903151547 88 209 2.0 7.0 0.00 0.00 0.00 51 1011.9
20260903151025 88 220 2.0 7.0 0.00 0.00 0.00 52 1012.0
20260903150526 88 202 1.0 5.0 0.00 0.00 0.00 53 1012.0
20260903150053 87 192 2.0 5.0 0.00 0.00 0.00 54 1012.0
20260903145525 87 184 2.0 7.0 0.00 0.00 0.00 54 1012.0
20260903145026 87 219 2.0 7.0 0.00 0.00 0.00 55 1011.9
20260903144554 86 169 3.0 6.0 0.00 0.00 0.00 56 1012.0
20260903144025 86 214 2.0 8.0 0.00 0.00 0.00 58 1012.0
20260903143524 86 201 2.0 8.0 0.00 0.00 0.00 59 1012.0
20260903143046 85 181 3.0 8.0 0.00 0.00 0.00 60 1012.0
20260903142525 84 198 2.0 7.0 0.00 0.00 0.00 61 1012.0
20260903142024 84 181 2.0 7.0 0.00 0.00 0.00 62 1011.9
20260903141548 83 174 2.0 7.0 0.00 0.00 0.00 63 1011.9
20260903141025 83 184 2.0 7.0 0.00 0.00 0.00 64 1012.0
20260903140525 82 224 2.0 6.0 0.00 0.00 0.00 65 1011.9
20260903140048 82 178 1.0 5.0 0.00 0.00 0.00 67 1011.8
20260903135526 82 164 2.0 5.0 0.00 0.00 0.00 68 1011.7
20260903135026 81 173 1.0 5.0 0.00 0.00 0.00 68 1011.6
20260903134551 81 0 0.0 3.0 0.00 0.00 0.00 68 1011.5
20260903134024 81 173 1.0 4.0 0.00 0.00 0.00 68 1011.5
20260903133525 81 173 1.0 4.0 0.00 0.00 0.00 68 1011.5
20260903133059 81 173 2.0 4.0 0.00 0.00 0.00 68 1011.5
20260903132523 81 184 1.0 5.0 0.00 0.00 0.00 69 1011.4
20260903132024 81 155 1.0 5.0 0.00 0.00 0.00 69 1011.4
20260903131549 81 155 1.0 5.0 0.00 0.00 0.00 69 1011.2
20260903131026 81 155 1.0 5.0 0.00 0.00 0.00 69 1011.2
20260903130525 81 155 1.0 3.0 0.00 0.00 0.00 69 1011.1
20260903130046 81 155 1.0 4.0 0.00 0.00 0.00 69 1011.1
20260903125525 81 0 1.0 4.0 0.00 0.00 0.00 69 1011.2
20260903125026 81 163 1.0 4.0 0.00 0.00 0.00 69 1011.1
20260903124553 80 163 2.0 4.0 0.00 0.00 0.00 69 1011.1
20260903124023 80 150 2.0 4.0 0.00 0.00 0.00 69 1011.1
20260903123526 81 145 0.0 3.0 0.00 0.00 0.00 69 1011.1
20260903123050 81 0 0.0 2.0 0.00 0.00 0.00 68 1010.8
20260903122525 81 145 1.0 2.0 0.00 0.00 0.00 68 1010.8
20260903122027 81 145 0.0 2.0 0.00 0.00 0.00 68 1010.7
20260903121545 81 145 1.0 2.0 0.00 0.00 0.00 68 1010.7
20260903121025 81 145 0.0 2.0 0.00 0.00 0.00 67 1010.6
20260903120524 81 0 0.0 3.0 0.00 0.00 0.00 67 1010.7
20260903115525 81 145 1.0 3.0 0.00 0.00 0.00 66 1010.7
20260903115025 81 157 1.0 4.0 0.00 0.00 0.00 66 1010.6
20260903114546 81 0 0.0 5.0 0.00 0.00 0.00 66 1010.5
20260903114025 81 167 1.0 5.0 0.00 0.00 0.00 66 1010.4
20260903113526 81 128 0.0 4.0 0.00 0.00 0.00 65 1010.4
20260903113046 82 0 0.0 2.0 0.00 0.00 0.00 65 1010.4
20260903112526 82 159 0.0 2.0 0.00 0.00 0.00 64 1010.4
20260903112027 82 159 0.0 2.0 0.00 0.00 0.00 64 1010.4
20260903111547 82 159 0.0 4.0 0.00 0.00 0.00 63 1010.3
20260903111026 82 160 0.0 4.0 0.00 0.00 0.00 62 1010.2
20260903110527 83 0 1.0 4.0 0.00 0.00 0.00 61 1010.3
20260903110044 83 159 1.0 4.0 0.00 0.00 0.00 61 1010.2
20260903105524 83 169 1.0 4.0 0.00 0.00 0.00 60 1010.2
20260903105024 84 0 1.0 4.0 0.00 0.00 0.00 58 1010.3
20260903104550 84 143 0.0 3.0 0.00 0.00 0.00 57 1010.3
20260903104023 84 23 0.0 2.0 0.00 0.00 0.00 56 1010.2
20260903103528 84 0 0.0 4.0 0.00 0.00 0.00 55 1010.2
20260903103047 84 0 1.0 4.0 0.00 0.00 0.00 56 1010.3
20260903102526 84 351 1.0 4.0 0.00 0.00 0.00 55 1010.3
20260903102025 84 0 0.0 5.0 0.00 0.00 0.00 55 1010.3
20260903101547 84 84 0.0 5.0 0.00 0.00 0.00 55 1010.3
20260903101024 84 70 1.0 4.0 0.00 0.00 0.00 55 1010.3
20260903100526 85 58 1.0 4.0 0.00 0.00 0.00 54 1010.3
20260903100050 85 74 1.0 3.0 0.00 0.00 0.00 53 1010.3
20260903095524 85 0 0.0 4.0 0.00 0.00 0.00 52 1010.2
20260903095024 85 194 1.0 4.0 0.00 0.00 0.00 52 1010.3
20260903094552 85 198 0.0 3.0 0.00 0.00 0.00 51 1010.4
20260903094025 86 228 0.0 3.0 0.00 0.00 0.00 51 1010.3
20260903093525 86 227 1.0 3.0 0.00 0.00 0.00 51 1010.3
20260903093113 86 250 1.0 3.0 0.00 0.00 0.00 50 1010.3
20260903092524 86 233 0.0 3.0 0.00 0.00 0.00 50 1010.3
20260903092027 86 297 1.0 3.0 0.00 0.00 0.00 50 1010.4
20260903091546 86 247 0.0 3.0 0.00 0.00 0.00 49 1010.3
20260903091024 86 229 1.0 6.0 0.00 0.00 0.00 49 1010.2
20260903090523 86 0 0.0 6.0 0.00 0.00 0.00 48 1010.2
20260903090050 87 225 2.0 6.0 0.00 0.00 0.00 48 1010.2
20260903085523 87 226 1.0 6.0 0.00 0.00 0.00 48 1010.2
20260903085024 87 230 2.0 7.0 0.00 0.00 0.00 47 1010.1
20260903084546 87 212 2.0 7.0 0.00 0.00 0.00 47 1010.2
20260903084026 87 197 2.0 7.0 0.00 0.00 0.00 46 1010.1
20260903083525 88 277 2.0 7.0 0.00 0.00 0.00 46 1010.1
20260903083045 88 227 3.0 7.0 0.00 0.00 0.00 45 1010.1
20260903082524 88 257 2.0 8.0 0.00 0.00 0.00 45 1010.1
20260903082025 88 209 2.0 8.0 0.00 0.00 0.00 45 1010.1
20260903081553 88 248 2.0 8.0 0.00 0.00 0.00 45 1010.2
20260903081025 88 220 3.0 8.0 0.00 0.00 0.00 46 1010.1
20260903080525 88 223 2.0 7.0 0.00 0.00 0.00 47 1010.1
20260903080100 88 213 3.0 6.0 0.00 0.00 0.00 48 1010.1
20260903075525 88 204 2.0 6.0 0.00 0.00 0.00 48 1010.2
20260903075024 88 195 1.0 5.0 0.00 0.00 0.00 49 1010.1
20260903074600 88 228 2.0 5.0 0.00 0.00 0.00 49 1010.2
20260903074024 88 231 0.0 3.0 0.00 0.00 0.00 49 1010.1
20260903073525 88 302 0.0 4.0 0.00 0.00 0.00 49 1010.0
20260903073105 89 307 1.0 4.0 0.00 0.00 0.00 48 1010.1
20260903072524 89 311 1.0 5.0 0.00 0.00 0.00 48 1010.1
20260903072025 89 0 2.0 5.0 0.00 0.00 0.00 47 1010.2
20260903071549 89 309 1.0 7.0 0.00 0.00 0.00 47 1010.1
20260903071024 89 254 1.0 7.0 0.00 0.00 0.00 47 1010.0
20260903070526 90 244 2.0 7.0 0.00 0.00 0.00 46 1010.0
20260903070047 90 207 2.0 8.0 0.00 0.00 0.00 46 1010.1
20260903065526 90 256 2.0 8.0 0.00 0.00 0.00 46 1010.0
20260903065024 89 241 1.0 6.0 0.00 0.00 0.00 46 1010.0
20260903064546 90 201 1.0 4.0 0.00 0.00 0.00 46 1010.0
20260903064024 89 220 1.0 4.0 0.00 0.00 0.00 46 1010.0
20260903063524 90 241 1.0 4.0 0.00 0.00 0.00 46 1010.0
20260903063053 90 200 2.0 4.0 0.00 0.00 0.00 46 1010.0
20260903062523 90 219 1.0 4.0 0.00 0.00 0.00 45 1010.0
20260903062028 90 211 1.0 4.0 0.00 0.00 0.00 45 1010.0
20260903061555 90 240 0.0 4.0 0.00 0.00 0.00 45 1009.9
20260903061027 90 211 0.0 3.0 0.00 0.00 0.00 45 1009.9
20260903060524 90 234 0.0 4.0 0.00 0.00 0.00 45 1009.9
20260903060049 90 0 1.0 4.0 0.00 0.00 0.00 44 1009.8
20260903055525 90 231 1.0 4.0 0.00 0.00 0.00 44 1009.8
20260903055024 91 238 0.0 4.0 0.00 0.00 0.00 44 1009.8
20260903054548 91 254 1.0 4.0 0.00 0.00 0.00 44 1009.8
20260903054024 91 220 1.0 4.0 0.00 0.00 0.00 43 1009.8
20260903053525 91 251 1.0 4.0 0.00 0.00 0.00 43 1009.9
20260903053053 91 242 1.0 4.0 0.00 0.00 0.00 43 1009.8
20260903052528 91 184 1.0 3.0 0.00 0.00 0.00 42 1009.8
20260903052025 91 184 1.0 4.0 0.00 0.00 0.00 42 1009.9
20260903051550 91 184 1.0 4.0 0.00 0.00 0.00 42 1009.9
20260903051025 91 178 1.0 4.0 0.00 0.00 0.00 41 1009.9
20260903050525 91 178 1.0 4.0 0.00 0.00 0.00 41 1009.8
20260903050042 92 0 1.0 4.0 0.00 0.00 0.00 41 1009.8
20260903045524 92 179 1.0 4.0 0.00 0.00 0.00 41 1009.7
20260903045024 92 194 1.0 5.0 0.00 0.00 0.00 40 1009.9
20260903044555 92 0 1.0 5.0 0.00 0.00 0.00 40 1009.8
20260903044027 92 0 2.0 5.0 0.00 0.00 0.00 40 1009.8
20260903043528 93 0 1.0 4.0 0.00 0.00 0.00 39 1009.9
20260903043047 93 229 1.0 4.0 0.00 0.00 0.00 39 1009.7
20260903042527 93 0 1.0 3.0 0.00 0.00 0.00 39 1009.7
20260903042024 93 265 0.0 3.0 0.00 0.00 0.00 38 1009.7
20260903041546 93 299 1.0 3.0 0.00 0.00 0.00 38 1009.6
20260903041025 94 299 1.0 3.0 0.00 0.00 0.00 37 1009.6
20260903040524 94 294 1.0 3.0 0.00 0.00 0.00 37 1009.6
20260903040055 94 298 0.0 3.0 0.00 0.00 0.00 37 1009.6
20260903035524 94 0 1.0 3.0 0.00 0.00 0.00 36 1009.5
20260903035025 94 262 1.0 3.0 0.00 0.00 0.00 36 1009.5
20260903034551 94 266 1.0 3.0 0.00 0.00 0.00 36 1009.6
20260903034026 94 251 0.0 3.0 0.00 0.00 0.00 36 1009.5
20260903033526 95 277 0.0 3.0 0.00 0.00 0.00 36 1009.4
20260903033047 95 282 0.0 3.0 0.00 0.00 0.00 36 1009.4
20260903032529 95 0 1.0 3.0 0.00 0.00 0.00 35 1009.4
20260903032025 95 262 1.0 4.0 0.00 0.00 0.00 35 1009.3
20260903031603 95 261 1.0 4.0 0.00 0.00 0.00 35 1009.1
20260903031025 95 304 1.0 4.0 0.00 0.00 0.00 35 1009.2
20260903030524 95 302 1.0 4.0 0.00 0.00 0.00 35 1009.2
20260903030056 95 299 1.0 4.0 0.00 0.00 0.00 35 1009.1
20260903025524 96 274 1.0 7.0 0.00 0.00 0.00 35 1009.0
20260903025029 96 292 2.0 7.0 0.00 0.00 0.00 34 1008.9
20260903024554 96 303 1.0 5.0 0.00 0.00 0.00 34 1008.9
20260903024026 96 257 1.0 7.0 0.00 0.00 0.00 34 1009.0
20260903023527 96 299 2.0 7.0 0.00 0.00 0.00 34 1008.9
20260903023047 96 273 1.0 6.0 0.00 0.00 0.00 33 1008.9
20260903022525 96 290 2.0 7.0 0.00 0.00 0.00 33 1008.9
20260903022025 96 302 2.0 7.0 0.00 0.00 0.00 33 1008.9
20260903021546 96 306 2.0 7.0 0.00 0.00 0.00 33 1008.8
20260903021026 96 261 1.0 7.0 0.00 0.00 0.00 33 1008.9
20260903020525 97 275 2.0 8.0 0.00 0.00 0.00 32 1008.7
20260903020054 97 282 1.0 8.0 0.00 0.00 0.00 32 1008.7
20260903015527 97 292 2.0 7.0 0.00 0.00 0.00 32 1008.7
20260903015028 97 270 2.0 8.0 0.00 0.00 0.00 32 1008.7
20260903014555 97 0 3.0 8.0 0.00 0.00 0.00 32 1008.7
20260903014026 98 290 2.0 8.0 0.00 0.00 0.00 31 1008.5
20260903013525 98 288 2.0 8.0 0.00 0.00 0.00 31 1008.5
20260903013046 98 303 2.0 8.0 0.00 0.00 0.00 31 1008.3
20260903012528 98 266 1.0 9.0 0.00 0.00 0.00 31 1008.3
20260903012024 98 297 3.0 9.0 0.00 0.00 0.00 30 1008.3
20260903011557 98 290 3.0 9.0 0.00 0.00 0.00 30 1008.3
20260903011028 99 300 2.0 8.0 0.00 0.00 0.00 30 1008.3
20260903010527 99 299 2.0 8.0 0.00 0.00 0.00 30 1008.3
20260903010051 99 275 3.0 8.0 0.00 0.00 0.00 30 1008.4
20260903005523 99 256 2.0 8.0 0.00 0.00 0.00 30 1008.5
20260903005026 99 0 1.0 8.0 0.00 0.00 0.00 30 1008.5
20260903004550 99 0 0.0 9.0 0.00 0.00 0.00 29 1008.5
20260903004026 99 246 1.0 9.0 0.00 0.00 0.00 29 1008.3
20260903003526 99 246 2.0 7.0 0.00 0.00 0.00 29 1008.3
20260903003047 100 313 3.0 7.0 0.00 0.00 0.00 29 1008.3
20260903002525 100 304 2.0 6.0 0.00 0.00 0.00 28 1008.5
20260903002026 101 297 1.0 8.0 0.00 0.00 0.00 28 1008.6
20260903001600 101 275 2.0 8.0 0.00 0.00 0.00 28 1008.6
20260903001026 101 327 1.0 8.0 0.00 0.00 0.00 27 1008.7
20260903000525 101 301 2.0 8.0 0.00 0.00 0.00 28 1008.7
20260903000050 101 247 2.0 10.0 0.00 0.00 0.00 28 1008.6
20260902235527 101 251 3.0 10.0 0.00 0.00 0.00 28 1008.6
20260902235025 101 283 1.0 8.0 0.00 0.00 0.00 28 1008.6
20260902234558 101 0 3.0 8.0 0.00 0.00 0.00 27 1008.7
20260902234027 102 341 2.0 8.0 0.00 0.00 0.00 27 1008.8
20260902233527 102 262 3.0 8.0 0.00 0.00 0.00 27 1008.8
20260902233047 102 309 3.0 9.0 0.00 0.00 0.00 27 1008.8
20260902232529 103 242 2.0 9.0 0.00 0.00 0.00 27 1009.0
20260902232025 102 257 1.0 7.0 0.00 0.00 0.00 27 1008.9
20260902231559 102 187 3.0 9.0 0.00 0.00 0.00 28 1009.1